Torna al catalogo

DELTA 1 DEB

AttivoSSO
NORAD 7128·DEBRIS·🇺🇸 United States

Lanciato Nov 6, 1973 da Vandenberg Space Force Base

Loading…

Prossimi Passaggi (prossime 24 ore)

TLE

AggiornatoSource: Space-Track

Epoca: Sep 13, 2026, 22:13 UTC

1 07128U 73086CS  26256.92635534  .00000116  00000-0  85979-3 0  9999
2 07128 101.6331  11.6374 0039816 234.7730 250.2736 12.65946419425159

Traccia DELTA 1 DEB in tempo reale con AllMySat

Download on the App Store